• In Moldova, Republic
  • List of Countries
  • For 7 days
  • Water Temperature
  • Satellite Maps
  • Weather Map
  • Weather Widgets
  • user-avatar
    Login

    Hourly Weather Klagenfurt

    Today, 24 July, Monday

    Time Temperature Precipitation Wind Pressure Humidity
    00:00 +18°C° 0.7 mm 1 mps 689 mmHg 93%
    01:00 +16°C° 0 mm 1 mps 689 mmHg 94%
    02:00 +16°C° 1.2 mm 1 mps 688 mmHg 95%
    03:00 +16°C° 1.2 mm 1 mps 688 mmHg 96%
    04:00 +16°C° 1.2 mm 1 mps 687 mmHg 97%
    05:00 +16°C° 1.8 mm 1 mps 687 mmHg 96%
    06:00 +18°C° 1.8 mm 1 mps 687 mmHg 96%
    07:00 +18°C° 1.8 mm 1 mps 687 mmHg 96%
    08:00 +19°C° 1.4 mm 1 mps 687 mmHg 93%
    09:00 +20°C° 1.4 mm 1 mps 686 mmHg 91%
    10:00 +21°C° 1.4 mm 1 mps 686 mmHg 88%
    11:00 +22°C° 1.8 mm 1 mps 686 mmHg 85%
    12:00 +22°C° 1.8 mm 1 mps 686 mmHg 82%
    13:00 +23°C° 1.8 mm 1 mps 685 mmHg 78%
    14:00 +22°C° 3.1 mm 1 mps 685 mmHg 81%
    15:00 +21°C° 3.1 mm 1 mps 685 mmHg 84%
    16:00 +20°C° 3.1 mm 1 mps 684 mmHg 86%
    17:00 +18°C° 4.6 mm 2 mps 684 mmHg 89%
    18:00 +17°C° 4.6 mm 2 mps 683 mmHg 92%
    19:00 +15°C° 4.6 mm 2 mps 683 mmHg 95%
    20:00 +15°C° 1.8 mm 2 mps 683 mmHg 95%
    21:00 +14°C° 1.8 mm 1 mps 683 mmHg 95%
    22:00 +13°C° 1.8 mm 1 mps 684 mmHg 96%
    23:00 +13°C° 0 mm 1 mps 684 mmHg 95%

    Tomorrow, 25 July, Tuesday

    Time Temperature Precipitation Wind Pressure Humidity
    00:00 +13°C° 0 mm 1 mps 684 mmHg 95%
    01:00 +12°C° 0 mm 1 mps 684 mmHg 95%
    02:00 +12°C° 0 mm 1 mps 684 mmHg 94%
    03:00 +11°C° 0 mm 1 mps 683 mmHg 94%
    04:00 +11°C° 0 mm 1 mps 683 mmHg 94%
    05:00 +12°C° 0 mm 1 mps 683 mmHg 92%
    06:00 +13°C° 0 mm 1 mps 684 mmHg 90%
    07:00 +14°C° 0 mm 1 mps 684 mmHg 88%
    08:00 +16°C° 0 mm 1 mps 685 mmHg 73%
    09:00 +20°C° 0 mm 1 mps 685 mmHg 59%
    10:00 +22°C° 0 mm 1 mps 685 mmHg 44%
    11:00 +23°C° 0 mm 1 mps 685 mmHg 41%
    12:00 +24°C° 0 mm 1 mps 685 mmHg 38%
    13:00 +25°C° 0 mm 1 mps 685 mmHg 36%
    14:00 +24°C° 0.3 mm 1 mps 685 mmHg 42%
    15:00 +23°C° 0.3 mm 1 mps 685 mmHg 49%
    16:00 +22°C° 0.3 mm 1 mps 685 mmHg 55%
    17:00 +20°C° 1 mm 1 mps 684 mmHg 65%
    18:00 +18°C° 1 mm 1 mps 684 mmHg 76%
    19:00 +15°C° 1 mm 1 mps 684 mmHg 86%
    20:00 +14°C° 0.3 mm 1 mps 684 mmHg 88%
    21:00 +13°C° 0.3 mm 1 mps 684 mmHg 89%
    22:00 +12°C° 0.3 mm 1 mps 684 mmHg 90%
    23:00 +12°C° 0 mm 1 mps 684 mmHg 90%

    Day after tomorrow, 26 July, Wednesday

    Time Temperature Precipitation Wind Pressure Humidity
    00:00 +11°C° 0 mm 1 mps 684 mmHg 90%
    01:00 +11°C° 0 mm 1 mps 683 mmHg 90%
    02:00 +11°C° 0.2 mm 1 mps 683 mmHg 90%
    03:00 +10°C° 0.2 mm 1 mps 683 mmHg 90%
    04:00 +10°C° 0.2 mm 1 mps 683 mmHg 90%
    05:00 +11°C° 0.2 mm 1 mps 684 mmHg 88%
    06:00 +12°C° 0.2 mm 1 mps 684 mmHg 86%
    07:00 +13°C° 0.2 mm 1 mps 684 mmHg 84%
    08:00 +15°C° 0 mm 1 mps 684 mmHg 76%
    09:00 +18°C° 0 mm 1 mps 684 mmHg 68%
    10:00 +20°C° 0 mm 1 mps 685 mmHg 59%
    11:00 +21°C° 0.2 mm 1 mps 685 mmHg 58%
    12:00 +21°C° 0.2 mm 1 mps 685 mmHg 57%
    13:00 +22°C° 0.2 mm 1 mps 685 mmHg 56%
    14:00 +22°C° 0.6 mm 1 mps 685 mmHg 59%
    15:00 +22°C° 0.6 mm 1 mps 685 mmHg 61%
    16:00 +21°C° 0.6 mm 1 mps 685 mmHg 63%
    17:00 +20°C° 0.6 mm 1 mps 685 mmHg 70%
    18:00 +18°C° 0.6 mm 1 mps 685 mmHg 77%
    19:00 +16°C° 0.6 mm 1 mps 685 mmHg 84%
    20:00 +15°C° 0.1 mm 1 mps 685 mmHg 85%
    21:00 +13°C° 0.1 mm 1 mps 685 mmHg 87%
    22:00 +12°C° 0.1 mm 1 mps 685 mmHg 89%
    23:00 +12°C° 0 mm 1 mps 685 mmHg 89%

    27 July, Thursday

    Time Temperature Precipitation Wind Pressure Humidity
    00:00 +12°C° 0 mm 1 mps 685 mmHg 89%
    01:00 +11°C° 0 mm 1 mps 685 mmHg 90%
    02:00 +11°C° 0 mm 1 mps 685 mmHg 89%
    03:00 +11°C° 0 mm 1 mps 685 mmHg 89%
    04:00 +11°C° 0 mm 1 mps 685 mmHg 88%
    05:00 +12°C° 0 mm 1 mps 686 mmHg 86%
    06:00 +13°C° 0 mm 1 mps 686 mmHg 83%
    07:00 +14°C° 0 mm 1 mps 687 mmHg 80%
    08:00 +18°C° 0 mm 1 mps 687 mmHg 70%
    09:00 +20°C° 0 mm 1 mps 688 mmHg 59%
    10:00 +23°C° 0 mm 1 mps 688 mmHg 49%
    11:00 +24°C° 0 mm 1 mps 688 mmHg 46%
    12:00 +24°C° 0 mm 1 mps 688 mmHg 44%
    13:00 +25°C° 0 mm 1 mps 688 mmHg 41%
    14:00 +25°C° 0.1 mm 1 mps 688 mmHg 44%
    15:00 +24°C° 0.1 mm 1 mps 688 mmHg 47%
    16:00 +24°C° 0.1 mm 1 mps 688 mmHg 50%
    17:00 +22°C° 0.1 mm 1 mps 688 mmHg 59%
    18:00 +20°C° 0.1 mm 1 mps 688 mmHg 68%
    19:00 +18°C° 0.1 mm 1 mps 688 mmHg 77%
    20:00 +16°C° 0 mm 1 mps 688 mmHg 79%
    21:00 +15°C° 0 mm 1 mps 688 mmHg 82%
    22:00 +14°C° 0 mm 1 mps 688 mmHg 84%
    23:00 +13°C° 0 mm 1 mps 688 mmHg 85%

    28 July, Friday

    Time Temperature Precipitation Wind Pressure Humidity
    00:00 +13°C° 0 mm 1 mps 688 mmHg 86%
    01:00 +12°C° 0 mm 1 mps 688 mmHg 86%
    02:00 +12°C° 0 mm 1 mps 688 mmHg 86%
    03:00 +12°C° 0 mm 1 mps 688 mmHg 87%
    04:00 +12°C° 0 mm 1 mps 688 mmHg 87%
    05:00 +13°C° 0 mm 1 mps 688 mmHg 82%
    06:00 +15°C° 0 mm 1 mps 689 mmHg 78%
    07:00 +16°C° 0 mm 0 mps 689 mmHg 73%
    08:00 +19°C° 0 mm 0 mps 690 mmHg 64%
    09:00 +21°C° 0 mm 0 mps 691 mmHg 55%
    10:00 +24°C° 0 mm 0 mps 691 mmHg 46%
    11:00 +27°C° 0 mm 1 mps 691 mmHg 44%
    12:00 +27°C° 0 mm 1 mps 691 mmHg 42%
    13:00 +27°C° 0 mm 2 mps 691 mmHg 40%
    14:00 +27°C° 0.1 mm 2 mps 691 mmHg 44%
    15:00 +26°C° 0.1 mm 2 mps 691 mmHg 48%
    16:00 +26°C° 0.1 mm 2 mps 691 mmHg 52%
    17:00 +24°C° 0.2 mm 1 mps 691 mmHg 60%
    18:00 +22°C° 0.2 mm 1 mps 691 mmHg 69%
    19:00 +20°C° 0.2 mm 1 mps 691 mmHg 77%
    20:00 +19°C° 0 mm 1 mps 691 mmHg 80%
    21:00 +18°C° 0 mm 1 mps 691 mmHg 83%
    22:00 +15°C° 0 mm 1 mps 692 mmHg 87%
    23:00 +15°C° 0 mm 1 mps 692 mmHg 87%

    29 July, Saturday

    Time Temperature Precipitation Wind Pressure Humidity
    00:00 +15°C° 0 mm 1 mps 692 mmHg 88%
    01:00 +14°C° 0 mm 1 mps 692 mmHg 88%
    02:00 +14°C° 0 mm 1 mps 692 mmHg 88%
    03:00 +14°C° 0 mm 1 mps 692 mmHg 89%
    04:00 +14°C° 0 mm 1 mps 692 mmHg 89%
    05:00 +15°C° 0 mm 1 mps 692 mmHg 85%
    06:00 +16°C° 0 mm 1 mps 693 mmHg 81%
    07:00 +18°C° 0 mm 1 mps 693 mmHg 78%
    08:00 +20°C° 0 mm 1 mps 694 mmHg 71%
    09:00 +22°C° 0 mm 1 mps 694 mmHg 65%
    10:00 +24°C° 0 mm 1 mps 694 mmHg 59%
    11:00 +24°C° 0 mm 1 mps 694 mmHg 58%
    12:00 +25°C° 0 mm 1 mps 694 mmHg 57%
    13:00 +25°C° 0 mm 1 mps 694 mmHg 55%
    14:00 +26°C° 0.1 mm 1 mps 694 mmHg 56%
    15:00 +26°C° 0.1 mm 1 mps 693 mmHg 56%
    16:00 +26°C° 0.1 mm 1 mps 693 mmHg 56%
    17:00 +24°C° 0.1 mm 1 mps 693 mmHg 64%
    18:00 +23°C° 0.1 mm 1 mps 693 mmHg 71%
    19:00 +19°C° 0.1 mm 0 mps 692 mmHg 79%
    20:00 +18°C° 0.2 mm 0 mps 692 mmHg 82%
    21:00 +17°C° 0.2 mm 0 mps 692 mmHg 85%
    22:00 +16°C° 0.2 mm 0 mps 693 mmHg 88%
    23:00 +16°C° 0.3 mm 0 mps 692 mmHg 88%
    Show more